EN

Hourly Weather Altenburg

Today, 25 January, Monday

Time Temperature Precipitation Wind Pressure Humidity
00:00 -2°C° 0.1 mm 4 mps 729 mmHg 95%
01:00 -2°C° 0.1 mm 4 mps 729 mmHg 94%
02:00 -2°C° 0 mm 3 mps 729 mmHg 94%
03:00 -2°C° 0 mm 3 mps 729 mmHg 94%
04:00 -3°C° 0 mm 2 mps 729 mmHg 94%
05:00 -3°C° 0 mm 2 mps 729 mmHg 93%
06:00 -4°C° 0 mm 2 mps 729 mmHg 93%
07:00 -4°C° 0 mm 2 mps 730 mmHg 92%
08:00 -4°C° 0 mm 2 mps 733 mmHg 90%
09:00 -4°C° 0 mm 3 mps 734 mmHg 89%
10:00 -4°C° 0 mm 3 mps 734 mmHg 89%
11:00 -2°C° 0 mm 3 mps 735 mmHg 87%
12:00 -1°C° 0 mm 3 mps 735 mmHg 86%
13:00 0°C° 0 mm 3 mps 735 mmHg 84%
14:00 -1°C° 0 mm 3 mps 735 mmHg 85%
15:00 -1°C° 0 mm 3 mps 735 mmHg 85%
16:00 -2°C° 0 mm 3 mps 735 mmHg 85%
17:00 -2°C° 0 mm 3 mps 736 mmHg 86%
18:00 -4°C° 0 mm 3 mps 736 mmHg 87%
19:00 -5°C° 0 mm 3 mps 736 mmHg 89%
20:00 -5°C° 0 mm 3 mps 736 mmHg 90%
21:00 -5°C° 0 mm 3 mps 736 mmHg 90%
22:00 -5°C° 0 mm 3 mps 736 mmHg 91%
23:00 -5°C° 0.1 mm 3 mps 736 mmHg 92%

Tomorrow, 26 January, Tuesday

Time Temperature Precipitation Wind Pressure Humidity
00:00 -3°C° 0.1 mm 2 mps 736 mmHg 94%
01:00 -3°C° 0.1 mm 2 mps 736 mmHg 95%
02:00 -3°C° 0.1 mm 2 mps 737 mmHg 96%
03:00 -3°C° 0.1 mm 2 mps 737 mmHg 96%
04:00 -3°C° 0.1 mm 2 mps 737 mmHg 96%
05:00 -3°C° 0.1 mm 2 mps 737 mmHg 96%
06:00 -4°C° 0.1 mm 2 mps 738 mmHg 96%
07:00 -4°C° 0.1 mm 2 mps 738 mmHg 96%
08:00 -3°C° 0 mm 2 mps 738 mmHg 95%
09:00 -4°C° 0 mm 3 mps 739 mmHg 94%
10:00 -4°C° 0 mm 3 mps 739 mmHg 93%
11:00 -2°C° 0 mm 3 mps 740 mmHg 90%
12:00 -1°C° 0 mm 3 mps 740 mmHg 88%
13:00 -1°C° 0 mm 4 mps 740 mmHg 85%
14:00 -1°C° 0 mm 3 mps 740 mmHg 86%
15:00 -1°C° 0 mm 3 mps 740 mmHg 86%
16:00 -1°C° 0 mm 3 mps 740 mmHg 86%
17:00 -1°C° 0 mm 3 mps 740 mmHg 87%
18:00 -1°C° 0 mm 3 mps 740 mmHg 87%
19:00 -1°C° 0 mm 3 mps 740 mmHg 87%
20:00 -1°C° 0 mm 3 mps 740 mmHg 88%
21:00 -2°C° 0 mm 4 mps 740 mmHg 88%
22:00 -3°C° 0 mm 4 mps 739 mmHg 89%
23:00 -3°C° 0 mm 4 mps 739 mmHg 88%

Day after tomorrow, 27 January, Wednesday

Time Temperature Precipitation Wind Pressure Humidity
00:00 -3°C° 0 mm 4 mps 738 mmHg 88%
01:00 -3°C° 0 mm 4 mps 738 mmHg 87%
02:00 -2°C° 0 mm 4 mps 737 mmHg 89%
03:00 -2°C° 0 mm 4 mps 736 mmHg 91%
04:00 -2°C° 0 mm 4 mps 735 mmHg 93%
05:00 -2°C° 0.8 mm 4 mps 734 mmHg 95%
06:00 -2°C° 0.8 mm 4 mps 734 mmHg 96%
07:00 -2°C° 0.8 mm 5 mps 733 mmHg 97%
08:00 -1°C° 0.2 mm 5 mps 733 mmHg 98%
09:00 0°C° 0.2 mm 4 mps 734 mmHg 98%
10:00 0°C° 0.2 mm 4 mps 734 mmHg 99%
11:00 0°C° 0.2 mm 4 mps 734 mmHg 99%
12:00 0°C° 0.2 mm 4 mps 734 mmHg 99%
13:00 +1°C° 0.2 mm 5 mps 735 mmHg 99%
14:00 0°C° 0.2 mm 4 mps 736 mmHg 99%
15:00 0°C° 0.2 mm 4 mps 736 mmHg 98%
16:00 0°C° 0.2 mm 4 mps 737 mmHg 98%
17:00 -1°C° 0.1 mm 4 mps 738 mmHg 98%
18:00 0°C° 0.1 mm 3 mps 739 mmHg 98%
19:00 0°C° 0.1 mm 3 mps 739 mmHg 98%
20:00 0°C° 0.1 mm 3 mps 740 mmHg 98%
21:00 0°C° 0.1 mm 3 mps 740 mmHg 98%
22:00 0°C° 0.1 mm 3 mps 741 mmHg 98%
23:00 0°C° 0.1 mm 3 mps 740 mmHg 97%

28 January, Thursday

Time Temperature Precipitation Wind Pressure Humidity
00:00 0°C° 0.1 mm 4 mps 740 mmHg 96%
01:00 0°C° 0.1 mm 4 mps 740 mmHg 94%
02:00 0°C° 0 mm 4 mps 740 mmHg 94%
03:00 0°C° 0 mm 4 mps 739 mmHg 94%
04:00 0°C° 0 mm 4 mps 739 mmHg 93%
05:00 0°C° 0.5 mm 4 mps 738 mmHg 95%
06:00 +1°C° 0.5 mm 4 mps 738 mmHg 96%
07:00 +1°C° 0.5 mm 4 mps 737 mmHg 97%
08:00 +1°C° 1 mm 5 mps 737 mmHg 97%
09:00 +1°C° 1 mm 5 mps 736 mmHg 97%
10:00 +1°C° 1 mm 5 mps 736 mmHg 97%
11:00 +1°C° 1.6 mm 5 mps 735 mmHg 97%
12:00 +2°C° 1.6 mm 6 mps 734 mmHg 96%
13:00 +2°C° 1.6 mm 6 mps 734 mmHg 95%
14:00 +3°C° 0.2 mm 6 mps 734 mmHg 94%
15:00 +3°C° 0.2 mm 6 mps 734 mmHg 92%
16:00 +4°C° 0.2 mm 6 mps 733 mmHg 90%
17:00 +3°C° 0 mm 5 mps 734 mmHg 90%
18:00 +2°C° 0 mm 5 mps 734 mmHg 90%
19:00 +3°C° 0 mm 4 mps 734 mmHg 90%

29 January, Friday

Time Temperature Precipitation Wind Pressure Humidity

30 January, Saturday

Time Temperature Precipitation Wind Pressure Humidity
Show more